310P/Hill (2006)

Japanese version
Home page
Updated on August 31, 2014

---------------------------------------------------------------------

* Profile

Designation 310P/2006 S6
Discovery Date September 28, 2006
Magnitude 18.7 mag
Discoverer R. E. Hill (Catalina Sky Survey)

* Pictures

* Orbital Elements

Epoch 2006 Nov. 1.0 TT = JDT 2454040.5
T 2006 Oct. 18.26395 TT                                 MPC
q   2.3982762            (2000.0)            P               Q
n   0.11584899     Peri.   31.24861     +0.76463468     -0.64346176
a   4.1674898      Node     9.06789     +0.53420621     +0.60164826
e   0.4245274      Incl.   13.17688     +0.36049621     +0.47326138
P   8.51
From 212 observations 2006 Aug. 29-2014 Aug. 25, mean residual 0".6.

* Finding Charts

* Magnitudes Graph

        m1 = 10.8 + 5 log d + 15.0 log r

---------------------------------------------------------------------

The orbital elements are published on M.P.E.C. 2014-Q53.
The magnitudes graphs are made with Comet for Windows.

---------------------------------------------------------------------

Copyright(C) Seiichi Yoshida (comet@aerith.net). All rights reserved.